sat.trackr.live / text

‹ back to catalog

STARLINK-1301

NORAD 45361 · 2020-019B

PAYLOAD ACTIVE UNKNOWN

§ Identity

Operator
Country
US
Launch date
2020-03-18
Launch site
AFETR
Launch vehicle
Mass (kg)
RCS (m²)

Purposes: comms

External: N2YO · Heavens-Above · Gunter

§ Orbital elements

Epoch: 2026-05-25T02:51:19.174752Z

Period
91.45 min
Inclination
53.0369°
Eccentricity
0.0006168
Mean motion
15.74669358 rev/d
Perigee alt
341.4 km
Apogee alt
349.7 km
Semi-major
6,723.7 km
B*
5.3262e-4
RAAN
86.1857°
Arg perigee
85.9818°
Mean anomaly
274.1905°
Rev number
34,261

§ Raw data

STARLINK-13011 45361U 20019B   26145.11897193  .00079851  00000+0  53262-3 0  99982 45361  53.0369  86.1857 0006168  85.9818 274.1905 15.74669358342610

JSON: /api/v1/satellites/45361 · /tle

For live sub-satellite position, see the globe view (requires WebGL).

§ Visibility from observer

Set your observer location to see the next 7 days of passes ≥ 10°. The values pass through the URL so the page stays shareable.

No JS? Fill the form by hand. The geolocation button needs JavaScript.